| time (UTC) | temp F | wind direction | speed MPH | gust MPH | rain 1hr in | rain 24hr in | rain mn in | humidity % | barometer mb |
| 20260831112216 | 74 | 250 | 8.0 | 17.0 | 0.00 | 0.00 | 0.00 | 61 | 1022.3 |
| 20260831111704 | 74 | 300 | 7.0 | 14.0 | 0.00 | 0.00 | 0.00 | 63 | 1022.3 |
| 20260831111205 | 74 | 277 | 6.0 | 17.0 | 0.00 | 0.00 | 0.00 | 62 | 1022.3 |
| 20260831110718 | 74 | 251 | 5.0 | 17.0 | 0.00 | 0.00 | 0.00 | 63 | 1022.4 |
| 20260831110214 | 74 | 286 | 8.0 | 17.0 | 0.00 | 0.00 | 0.00 | 64 | 1022.3 |
| 20260831105718 | 73 | 267 | 7.0 | 13.0 | 0.00 | 0.00 | 0.00 | 65 | 1022.4 |
| 20260831105215 | 73 | 288 | 4.0 | 13.0 | 0.00 | 0.00 | 0.00 | 65 | 1022.4 |
| 20260831104710 | 73 | 293 | 7.0 | 13.0 | 0.00 | 0.00 | 0.00 | 67 | 1022.3 |
| 20260831104208 | 72 | 278 | 6.0 | 13.0 | 0.00 | 0.00 | 0.00 | 67 | 1022.4 |
| 20260831103713 | 72 | 262 | 5.0 | 13.0 | 0.00 | 0.00 | 0.00 | 67 | 1022.5 |
| 20260831102708 | 72 | 268 | 4.0 | 13.0 | 0.00 | 0.00 | 0.00 | 67 | 1022.4 |
| 20260831101714 | 72 | 1 | 4.0 | 17.0 | 0.00 | 0.00 | 0.00 | 70 | 1022.4 |
| 20260831100707 | 72 | 267 | 7.0 | 13.0 | 0.00 | 0.00 | 0.00 | 69 | 1022.4 |
| 20260831100214 | 72 | 274 | 7.0 | 13.0 | 0.00 | 0.00 | 0.00 | 69 | 1022.4 |
| 20260831094712 | 73 | 251 | 6.0 | 11.0 | 0.00 | 0.00 | 0.00 | 68 | 1022.3 |
| 20260831093706 | 72 | 272 | 5.0 | 9.0 | 0.00 | 0.00 | 0.00 | 68 | 1022.2 |
| 20260831093211 | 72 | 278 | 4.0 | 11.0 | 0.00 | 0.00 | 0.00 | 69 | 1022.3 |
| 20260831092706 | 72 | 323 | 4.0 | 14.0 | 0.00 | 0.00 | 0.00 | 70 | 1022.2 |
| 20260831092211 | 72 | 315 | 4.0 | 14.0 | 0.00 | 0.00 | 0.00 | 69 | 1022.3 |
| 20260831091715 | 72 | 282 | 5.0 | 14.0 | 0.00 | 0.00 | 0.00 | 69 | 1022.2 |
| 20260831090715 | 72 | 274 | 6.0 | 9.0 | 0.00 | 0.00 | 0.00 | 70 | 1022.2 |
| 20260831090208 | 72 | 285 | 4.0 | 10.0 | 0.00 | 0.00 | 0.00 | 71 | 1022.1 |
| 20260831085709 | 71 | 257 | 4.0 | 12.0 | 0.00 | 0.00 | 0.00 | 71 | 1022.1 |
| 20260831085212 | 71 | 322 | 6.0 | 12.0 | 0.00 | 0.00 | 0.00 | 72 | 1022.0 |
| 20260831084710 | 71 | 272 | 4.0 | 12.0 | 0.00 | 0.00 | 0.00 | 72 | 1021.9 |
| 20260831084206 | 71 | 275 | 6.0 | 12.0 | 0.00 | 0.00 | 0.00 | 73 | 1022.0 |
| 20260831083713 | 70 | 0 | 5.0 | 12.0 | 0.00 | 0.00 | 0.00 | 73 | 1021.9 |
| 20260831083205 | 70 | 282 | 5.0 | 15.0 | 0.00 | 0.00 | 0.00 | 73 | 1021.9 |
| 20260831082709 | 70 | 295 | 6.0 | 15.0 | 0.00 | 0.00 | 0.00 | 73 | 1021.8 |
| 20260831082210 | 70 | 292 | 5.0 | 15.0 | 0.00 | 0.00 | 0.00 | 74 | 1021.9 |
| 20260831081219 | 70 | 248 | 6.0 | 15.0 | 0.00 | 0.00 | 0.00 | 74 | 1021.8 |
| 20260831080720 | 70 | 265 | 6.0 | 15.0 | 0.00 | 0.00 | 0.00 | 73 | 1021.8 |
| 20260831080207 | 70 | 258 | 4.0 | 15.0 | 0.00 | 0.00 | 0.00 | 73 | 1021.8 |
| 20260831075705 | 70 | 278 | 8.0 | 15.0 | 0.00 | 0.00 | 0.00 | 74 | 1021.6 |
| 20260831075218 | 70 | 262 | 8.0 | 13.0 | 0.00 | 0.00 | 0.00 | 73 | 1021.6 |
| 20260831074705 | 70 | 284 | 6.0 | 12.0 | 0.00 | 0.00 | 0.00 | 73 | 1021.5 |
| 20260831073209 | 70 | 248 | 5.0 | 11.0 | 0.00 | 0.00 | 0.00 | 74 | 1021.4 |
| 20260831072709 | 70 | 270 | 4.0 | 14.0 | 0.00 | 0.00 | 0.00 | 73 | 1021.4 |
| 20260831072211 | 70 | 306 | 5.0 | 14.0 | 0.00 | 0.00 | 0.00 | 74 | 1021.4 |
| 20260831071709 | 70 | 270 | 6.0 | 14.0 | 0.00 | 0.00 | 0.00 | 74 | 1021.4 |
| 20260831070710 | 70 | 222 | 6.0 | 13.0 | 0.00 | 0.00 | 0.00 | 73 | 1021.3 |
| 20260831070205 | 70 | 264 | 6.0 | 12.0 | 0.00 | 0.00 | 0.00 | 74 | 1021.3 |
| 20260831065715 | 70 | 275 | 6.0 | 14.0 | 0.00 | 0.00 | 0.00 | 73 | 1021.1 |
| 20260831065218 | 70 | 278 | 5.0 | 14.0 | 0.00 | 0.00 | 0.00 | 73 | 1021.2 |
| 20260831064718 | 70 | 274 | 4.0 | 14.0 | 0.00 | 0.00 | 0.00 | 73 | 1021.2 |
| 20260831064210 | 70 | 289 | 5.0 | 12.0 | 0.00 | 0.00 | 0.00 | 73 | 1021.2 |
| 20260831063705 | 70 | 279 | 5.0 | 12.0 | 0.00 | 0.00 | 0.00 | 73 | 1021.1 |
| 20260831062712 | 70 | 267 | 6.0 | 13.0 | 0.00 | 0.00 | 0.00 | 73 | 1021.1 |
| 20260831062206 | 70 | 264 | 4.0 | 13.0 | 0.00 | 0.00 | 0.00 | 73 | 1021.1 |
| 20260831061713 | 70 | 272 | 6.0 | 11.0 | 0.00 | 0.00 | 0.00 | 73 | 1021.1 |
| 20260831061217 | 70 | 281 | 4.0 | 11.0 | 0.00 | 0.00 | 0.00 | 72 | 1021.1 |
| 20260831060705 | 70 | 291 | 4.0 | 11.0 | 0.00 | 0.00 | 0.00 | 72 | 1021.0 |
| 20260831060213 | 70 | 274 | 5.0 | 10.0 | 0.00 | 0.00 | 0.00 | 72 | 1021.0 |
| 20260831055708 | 70 | 264 | 4.0 | 10.0 | 0.00 | 0.00 | 0.00 | 73 | 1021.1 |
| 20260831055214 | 70 | 296 | 4.0 | 10.0 | 0.00 | 0.00 | 0.00 | 73 | 1021.0 |
| 20260831054731 | 69 | 272 | 3.0 | 10.0 | 0.00 | 0.00 | 0.00 | 73 | 1020.9 |
| 20260831054211 | 69 | 278 | 2.0 | 10.0 | 0.00 | 0.00 | 0.00 | 73 | 1020.9 |
| 20260831053710 | 69 | 264 | 5.0 | 8.0 | 0.00 | 0.00 | 0.00 | 73 | 1020.9 |
| 20260831053215 | 69 | 293 | 2.0 | 8.0 | 0.00 | 0.00 | 0.00 | 73 | 1020.8 |
| 20260831052708 | 69 | 268 | 3.0 | 8.0 | 0.00 | 0.00 | 0.00 | 73 | 1020.8 |
| 20260831052219 | 69 | 255 | 4.0 | 9.0 | 0.00 | 0.00 | 0.00 | 73 | 1020.8 |
| 20260831051710 | 69 | 209 | 5.0 | 9.0 | 0.00 | 0.00 | 0.00 | 73 | 1020.8 |
| 20260831051212 | 70 | 312 | 2.0 | 9.0 | 0.00 | 0.00 | 0.00 | 73 | 1020.7 |
| 20260831050716 | 70 | 281 | 5.0 | 11.0 | 0.00 | 0.00 | 0.00 | 73 | 1020.8 |
| 20260831050246 | 70 | 236 | 4.0 | 11.0 | 0.00 | 0.00 | 0.00 | 73 | 1020.7 |
| 20260831045711 | 70 | 251 | 3.0 | 12.0 | 0.00 | 0.00 | 0.00 | 73 | 1020.7 |
| 20260831045207 | 70 | 265 | 4.0 | 13.0 | 0.00 | 0.00 | 0.00 | 73 | 1020.7 |
| 20260831044207 | 70 | 254 | 4.0 | 13.0 | 0.00 | 0.00 | 0.00 | 73 | 1020.8 |
| 20260831043712 | 70 | 246 | 7.0 | 13.0 | 0.00 | 0.00 | 0.00 | 73 | 1020.7 |
| 20260831043211 | 70 | 262 | 6.0 | 13.0 | 0.00 | 0.00 | 0.00 | 73 | 1020.7 |
| 20260831042718 | 70 | 226 | 6.0 | 11.0 | 0.00 | 0.00 | 0.00 | 73 | 1020.7 |
| 20260831042211 | 70 | 236 | 5.0 | 11.0 | 0.00 | 0.00 | 0.00 | 74 | 1020.7 |
| 20260831041705 | 70 | 217 | 4.0 | 9.0 | 0.00 | 0.00 | 0.00 | 74 | 1020.7 |
| 20260831041216 | 70 | 250 | 4.0 | 10.0 | 0.00 | 0.00 | 0.00 | 74 | 1020.7 |
| 20260831040719 | 71 | 285 | 2.0 | 11.0 | 0.00 | 0.00 | 0.00 | 74 | 1020.7 |
| 20260831040209 | 71 | 282 | 4.0 | 11.0 | 0.00 | 0.00 | 0.00 | 74 | 1020.6 |
| 20260831035710 | 71 | 246 | 4.0 | 11.0 | 0.00 | 0.00 | 0.00 | 74 | 1020.7 |
| 20260831035207 | 71 | 264 | 6.0 | 9.0 | 0.00 | 0.00 | 0.00 | 74 | 1020.7 |
| 20260831034717 | 71 | 271 | 4.0 | 8.0 | 0.00 | 0.00 | 0.00 | 75 | 1020.7 |
| 20260831034219 | 71 | 284 | 4.0 | 8.0 | 0.00 | 0.00 | 0.00 | 75 | 1020.7 |
| 20260831033707 | 71 | 295 | 2.0 | 7.0 | 0.00 | 0.00 | 0.00 | 75 | 1020.7 |
| 20260831033210 | 71 | 288 | 3.0 | 7.0 | 0.00 | 0.00 | 0.00 | 75 | 1020.7 |
| 20260831032706 | 71 | 278 | 3.0 | 9.0 | 0.00 | 0.00 | 0.00 | 74 | 1020.7 |
| 20260831032215 | 71 | 272 | 2.0 | 10.0 | 0.00 | 0.00 | 0.00 | 75 | 1020.6 |
| 20260831031719 | 71 | 295 | 2.0 | 10.0 | 0.00 | 0.00 | 0.00 | 74 | 1020.7 |
| 20260831031218 | 71 | 244 | 3.0 | 10.0 | 0.00 | 0.00 | 0.00 | 74 | 1020.7 |
| 20260831030705 | 71 | 254 | 4.0 | 7.0 | 0.00 | 0.00 | 0.00 | 74 | 1020.6 |
| 20260831030211 | 71 | 292 | 2.0 | 9.0 | 0.00 | 0.00 | 0.00 | 74 | 1020.7 |
| 20260831025714 | 71 | 293 | 1.0 | 11.0 | 0.00 | 0.00 | 0.00 | 73 | 1020.6 |
| 20260831024707 | 71 | 277 | 4.0 | 12.0 | 0.00 | 0.00 | 0.00 | 72 | 1020.6 |
| 20260831024217 | 72 | 244 | 4.0 | 12.0 | 0.00 | 0.00 | 0.00 | 71 | 1020.7 |
| 20260831023717 | 72 | 260 | 6.0 | 12.0 | 0.00 | 0.00 | 0.00 | 70 | 1020.6 |
| 20260831023209 | 72 | 243 | 6.0 | 11.0 | 0.00 | 0.00 | 0.00 | 70 | 1020.6 |
| 20260831022708 | 72 | 257 | 4.0 | 11.0 | 0.00 | 0.00 | 0.00 | 69 | 1020.6 |
| 20260831022207 | 72 | 277 | 5.0 | 12.0 | 0.00 | 0.00 | 0.00 | 69 | 1020.7 |
| 20260831021214 | 72 | 289 | 6.0 | 14.0 | 0.00 | 0.00 | 0.00 | 70 | 1020.7 |
| 20260831020712 | 72 | 257 | 6.0 | 14.0 | 0.00 | 0.00 | 0.00 | 70 | 1020.7 |
| 20260831020206 | 72 | 260 | 5.0 | 14.0 | 0.00 | 0.00 | 0.00 | 69 | 1020.7 |
| 20260831015707 | 72 | 261 | 9.0 | 13.0 | 0.00 | 0.00 | 0.00 | 69 | 1020.7 |
| 20260831015218 | 72 | 233 | 7.0 | 12.0 | 0.00 | 0.00 | 0.00 | 69 | 1020.6 |
| 20260831014212 | 72 | 257 | 5.0 | 11.0 | 0.00 | 0.00 | 0.00 | 70 | 1020.7 |
| 20260831012707 | 72 | 274 | 4.0 | 12.0 | 0.00 | 0.00 | 0.00 | 70 | 1020.6 |
| 20260831012216 | 72 | 240 | 5.0 | 12.0 | 0.00 | 0.00 | 0.00 | 70 | 1020.5 |
| 20260831011719 | 72 | 255 | 6.0 | 12.0 | 0.00 | 0.00 | 0.00 | 70 | 1020.6 |
| 20260831011211 | 72 | 248 | 6.0 | 11.0 | 0.00 | 0.00 | 0.00 | 70 | 1020.5 |
| 20260831010717 | 72 | 243 | 4.0 | 11.0 | 0.00 | 0.00 | 0.00 | 70 | 1020.5 |
| 20260831010216 | 72 | 247 | 4.0 | 13.0 | 0.00 | 0.00 | 0.00 | 70 | 1020.4 |
| 20260831005218 | 72 | 279 | 6.0 | 13.0 | 0.00 | 0.00 | 0.00 | 70 | 1020.3 |
| 20260831003212 | 73 | 261 | 6.0 | 13.0 | 0.00 | 0.00 | 0.00 | 70 | 1020.3 |
| 20260831002714 | 73 | 229 | 7.0 | 12.0 | 0.00 | 0.00 | 0.00 | 70 | 1020.3 |
| 20260831002223 | 73 | 258 | 6.0 | 12.0 | 0.00 | 0.00 | 0.00 | 71 | 1020.4 |
| 20260831001713 | 73 | 260 | 6.0 | 13.0 | 0.00 | 0.00 | 0.00 | 70 | 1020.4 |
| 20260831001218 | 73 | 264 | 5.0 | 13.0 | 0.00 | 0.00 | 0.00 | 71 | 1020.3 |
| 20260831000714 | 73 | 298 | 3.0 | 13.0 | 0.00 | 0.00 | 0.00 | 71 | 1020.4 |
| 20260831000206 | 73 | 247 | 7.0 | 16.0 | 0.00 | 0.00 | 0.00 | 71 | 1020.3 |
| 20260830235708 | 73 | 267 | 5.0 | 16.0 | 0.00 | 0.00 | 0.00 | 71 | 1020.4 |
| 20260830235218 | 73 | 250 | 4.0 | 16.0 | 0.00 | 0.00 | 0.00 | 71 | 1020.4 |
| 20260830234709 | 73 | 257 | 7.0 | 13.0 | 0.00 | 0.00 | 0.00 | 71 | 1020.3 |
| 20260830232706 | 73 | 282 | 8.0 | 17.0 | 0.00 | 0.00 | 0.00 | 72 | 1020.3 |
| 20260830232205 | 74 | 277 | 7.0 | 18.0 | 0.00 | 0.00 | 0.00 | 72 | 1020.3 |
| 20260830231213 | 74 | 293 | 8.0 | 18.0 | 0.00 | 0.00 | 0.00 | 71 | 1020.3 |
| 20260830230704 | 74 | 277 | 9.0 | 18.0 | 0.00 | 0.00 | 0.00 | 71 | 1020.3 |
| 20260830230234 | 74 | 253 | 6.0 | 18.0 | 0.00 | 0.00 | 0.00 | 71 | 1020.3 |
| 20260830225218 | 74 | 277 | 7.0 | 20.0 | 0.00 | 0.00 | 0.00 | 71 | 1020.1 |
| 20260830224219 | 75 | 288 | 9.0 | 24.0 | 0.00 | 0.00 | 0.00 | 70 | 1019.9 |
| 20260830223716 | 75 | 268 | 9.0 | 24.0 | 0.00 | 0.00 | 0.00 | 70 | 1019.9 |
| 20260830223212 | 75 | 270 | 9.0 | 22.0 | 0.00 | 0.00 | 0.00 | 70 | 1019.8 |
| 20260830222705 | 75 | 250 | 12.0 | 22.0 | 0.00 | 0.00 | 0.00 | 70 | 1019.8 |
| 20260830222205 | 76 | 254 | 9.0 | 22.0 | 0.00 | 0.00 | 0.00 | 69 | 1019.6 |
| 20260830221708 | 76 | 284 | 10.0 | 20.0 | 0.00 | 0.00 | 0.00 | 69 | 1019.6 |
| 20260830221209 | 76 | 267 | 8.0 | 23.0 | 0.00 | 0.00 | 0.00 | 68 | 1019.5 |
| 20260830220718 | 77 | 262 | 9.0 | 23.0 | 0.00 | 0.00 | 0.00 | 67 | 1019.2 |
| 20260830220207 | 78 | 291 | 9.0 | 23.0 | 0.00 | 0.00 | 0.00 | 66 | 1019.1 |
| 20260830215708 | 78 | 277 | 7.0 | 14.0 | 0.00 | 0.00 | 0.00 | 64 | 1019.1 |
| 20260830215217 | 79 | 270 | 5.0 | 14.0 | 0.00 | 0.00 | 0.00 | 62 | 1019.0 |
| 20260830214710 | 79 | 257 | 4.0 | 10.0 | 0.00 | 0.00 | 0.00 | 57 | 1018.7 |
| 20260830213712 | 80 | 240 | 1.0 | 6.0 | 0.00 | 0.00 | 0.00 | 54 | 1018.3 |
| 20260830213210 | 80 | 239 | 1.0 | 6.0 | 0.00 | 0.00 | 0.00 | 54 | 1018.2 |
| 20260830212714 | 80 | 248 | 2.0 | 5.0 | 0.00 | 0.00 | 0.00 | 53 | 1018.0 |
| 20260830212218 | 80 | 230 | 1.0 | 4.0 | 0.00 | 0.00 | 0.00 | 53 | 1018.0 |
| 20260830211218 | 80 | 225 | 0.0 | 5.0 | 0.00 | 0.00 | 0.00 | 52 | 1017.8 |
| 20260830210712 | 80 | 251 | 1.0 | 5.0 | 0.00 | 0.00 | 0.00 | 51 | 1017.8 |
| 20260830210229 | 80 | 267 | 0.0 | 5.0 | 0.00 | 0.00 | 0.00 | 51 | 1017.8 |
| 20260830205718 | 80 | 281 | 1.0 | 0.0 | 0.00 | 0.00 | 0.00 | 50 | 1017.6 |
| 20260830204709 | 80 | 0 | 0.0 | 3.0 | 0.00 | 0.00 | 0.00 | 49 | 1017.7 |
| 20260830204216 | 81 | 0 | 0.0 | 7.0 | 0.00 | 0.00 | 0.00 | 48 | 1017.7 |
| 20260830203714 | 81 | 237 | 0.0 | 7.0 | 0.00 | 0.00 | 0.00 | 48 | 1017.7 |
| 20260830202216 | 81 | 271 | 1.0 | 0.0 | 0.00 | 0.00 | 0.00 | 47 | 1017.4 |
| 20260830201705 | 81 | 0 | 0.0 | 0.0 | 0.00 | 0.00 | 0.00 | 47 | 1017.3 |
| 20260830201210 | 82 | 0 | 0.0 | 0.0 | 0.00 | 0.00 | 0.00 | 47 | 1017.1 |
| 20260830200236 | 82 | 0 | 0.0 | 8.0 | 0.00 | 0.00 | 0.00 | 46 | 1016.8 |
| 20260830195206 | 82 | 358 | 1.0 | 9.0 | 0.00 | 0.00 | 0.00 | 46 | 1016.7 |
| 20260830194719 | 82 | 347 | 3.0 | 14.0 | 0.00 | 0.00 | 0.00 | 46 | 1016.6 |
| 20260830194219 | 82 | 12 | 3.0 | 14.0 | 0.00 | 0.00 | 0.00 | 45 | 1016.5 |
| 20260830193708 | 82 | 4 | 4.0 | 14.0 | 0.00 | 0.00 | 0.00 | 45 | 1016.4 |
| 20260830193238 | 82 | 272 | 7.0 | 13.0 | 0.00 | 0.00 | 0.00 | 46 | 1016.3 |
| 20260830192719 | 82 | 4 | 6.0 | 11.0 | 0.00 | 0.00 | 0.00 | 46 | 1016.2 |
| 20260830192207 | 82 | 288 | 3.0 | 7.0 | 0.00 | 0.00 | 0.00 | 46 | 1016.2 |
| 20260830191714 | 82 | 0 | 0.0 | 9.0 | 0.00 | 0.00 | 0.00 | 47 | 1016.3 |
| 20260830191209 | 82 | 9 | 2.0 | 9.0 | 0.00 | 0.00 | 0.00 | 47 | 1015.7 |
| 20260830190717 | 83 | 19 | 3.0 | 9.0 | 0.00 | 0.00 | 0.00 | 46 | 1015.6 |
| 20260830190214 | 83 | 43 | 4.0 | 9.0 | 0.00 | 0.00 | 0.00 | 46 | 1015.4 |
| 20260830185713 | 83 | 22 | 4.0 | 9.0 | 0.00 | 0.00 | 0.00 | 45 | 1015.3 |
| 20260830185205 | 83 | 11 | 4.0 | 9.0 | 0.00 | 0.00 | 0.00 | 45 | 1015.3 |
| 20260830184217 | 84 | 16 | 3.0 | 9.0 | 0.00 | 0.00 | 0.00 | 44 | 1015.3 |
| 20260830183709 | 84 | 14 | 4.0 | 12.0 | 0.00 | 0.00 | 0.00 | 44 | 1015.2 |
| 20260830183219 | 84 | 2 | 4.0 | 12.0 | 0.00 | 0.00 | 0.00 | 43 | 1015.1 |
| 20260830182717 | 85 | 1 | 5.0 | 12.0 | 0.00 | 0.00 | 0.00 | 43 | 1015.0 |
| 20260830182216 | 85 | 26 | 5.0 | 13.0 | 0.00 | 0.00 | 0.00 | 43 | 1014.9 |
| 20260830180711 | 86 | 14 | 8.0 | 13.0 | 0.00 | 0.00 | 0.00 | 40 | 1014.6 |
| 20260830180214 | 87 | 21 | 6.0 | 6.0 | 0.00 | 0.00 | 0.00 | 39 | 1014.4 |
| 20260830175713 | 88 | 16 | 2.0 | 6.0 | 0.00 | 0.00 | 0.00 | 37 | 1014.4 |
| 20260830175206 | 89 | 61 | 0.0 | 6.0 | 0.00 | 0.00 | 0.00 | 35 | 1014.3 |
| 20260830174714 | 89 | 85 | 1.0 | 8.0 | 0.00 | 0.00 | 0.00 | 34 | 1014.2 |
| 20260830174217 | 89 | 67 | 2.0 | 9.0 | 0.00 | 0.00 | 0.00 | 33 | 1014.1 |
| 20260830173712 | 90 | 95 | 2.0 | 11.0 | 0.00 | 0.00 | 0.00 | 33 | 1014.1 |
| 20260830173218 | 90 | 40 | 2.0 | 11.0 | 0.00 | 0.00 | 0.00 | 33 | 1013.9 |
| 20260830172708 | 90 | 45 | 4.0 | 12.0 | 0.00 | 0.00 | 0.00 | 33 | 1013.9 |
| 20260830172214 | 91 | 43 | 5.0 | 12.0 | 0.00 | 0.00 | 0.00 | 32 | 1013.8 |
| 20260830171714 | 91 | 5 | 4.0 | 12.0 | 0.00 | 0.00 | 0.00 | 32 | 1013.8 |
| 20260830171216 | 91 | 59 | 5.0 | 11.0 | 0.00 | 0.00 | 0.00 | 32 | 1013.7 |
| 20260830170711 | 92 | 19 | 4.0 | 11.0 | 0.00 | 0.00 | 0.00 | 32 | 1013.6 |
| 20260830165707 | 92 | 85 | 6.0 | 11.0 | 0.00 | 0.00 | 0.00 | 32 | 1013.6 |
| 20260830165211 | 92 | 25 | 5.0 | 12.0 | 0.00 | 0.00 | 0.00 | 32 | 1013.5 |
| 20260830164207 | 92 | 25 | 6.0 | 13.0 | 0.00 | 0.00 | 0.00 | 32 | 1013.4 |
| 20260830163719 | 92 | 60 | 6.0 | 13.0 | 0.00 | 0.00 | 0.00 | 32 | 1013.4 |
| 20260830163212 | 92 | 68 | 6.0 | 15.0 | 0.00 | 0.00 | 0.00 | 32 | 1013.3 |
| 20260830162713 | 92 | 28 | 7.0 | 16.0 | 0.00 | 0.00 | 0.00 | 32 | 1013.2 |
| 20260830162205 | 92 | 52 | 6.0 | 16.0 | 0.00 | 0.00 | 0.00 | 33 | 1013.2 |
| 20260830161729 | 92 | 12 | 8.0 | 16.0 | 0.00 | 0.00 | 0.00 | 32 | 1013.2 |
| 20260830161246 | 92 | 52 | 8.0 | 12.0 | 0.00 | 0.00 | 0.00 | 33 | 1013.2 |
| 20260830160714 | 92 | 46 | 5.0 | 16.0 | 0.00 | 0.00 | 0.00 | 33 | 1013.2 |
| 20260830160211 | 92 | 53 | 6.0 | 16.0 | 0.00 | 0.00 | 0.00 | 33 | 1013.2 |
| 20260830155707 | 93 | 33 | 7.0 | 16.0 | 0.00 | 0.00 | 0.00 | 32 | 1013.4 |
| 20260830155216 | 92 | 8 | 8.0 | 15.0 | 0.00 | 0.00 | 0.00 | 32 | 1013.3 |
| 20260830154711 | 92 | 18 | 6.0 | 15.0 | 0.00 | 0.00 | 0.00 | 33 | 1013.3 |
| 20260830154213 | 93 | 64 | 5.0 | 17.0 | 0.00 | 0.00 | 0.00 | 32 | 1013.4 |
| 20260830153213 | 93 | 30 | 8.0 | 19.0 | 0.00 | 0.00 | 0.00 | 33 | 1013.3 |
| 20260830152712 | 93 | 14 | 11.0 | 19.0 | 0.00 | 0.00 | 0.00 | 33 | 1013.3 |
| 20260830151718 | 92 | 4 | 9.0 | 19.0 | 0.00 | 0.00 | 0.00 | 34 | 1013.2 |
| 20260830151218 | 92 | 8 | 11.0 | 20.0 | 0.00 | 0.00 | 0.00 | 34 | 1013.2 |
| 20260830150718 | 92 | 21 | 9.0 | 20.0 | 0.00 | 0.00 | 0.00 | 34 | 1013.3 |
| 20260830145214 | 92 | 19 | 8.0 | 19.0 | 0.00 | 0.00 | 0.00 | 33 | 1013.5 |
| 20260830144719 | 92 | 29 | 8.0 | 19.0 | 0.00 | 0.00 | 0.00 | 34 | 1013.5 |
| 20260830144214 | 93 | 23 | 9.0 | 19.0 | 0.00 | 0.00 | 0.00 | 34 | 1013.5 |
| 20260830143204 | 92 | 14 | 9.0 | 16.0 | 0.00 | 0.00 | 0.00 | 33 | 1013.5 |
| 20260830142710 | 92 | 9 | 9.0 | 16.0 | 0.00 | 0.00 | 0.00 | 33 | 1013.5 |
| 20260830142212 | 92 | 348 | 9.0 | 16.0 | 0.00 | 0.00 | 0.00 | 33 | 1013.5 |
| 20260830141214 | 92 | 4 | 9.0 | 18.0 | 0.00 | 0.00 | 0.00 | 35 | 1013.6 |
| 20260830140208 | 92 | 334 | 9.0 | 16.0 | 0.00 | 0.00 | 0.00 | 35 | 1013.7 |
| 20260830135708 | 92 | 22 | 9.0 | 16.0 | 0.00 | 0.00 | 0.00 | 36 | 1013.7 |
| 20260830135209 | 91 | 2 | 9.0 | 16.0 | 0.00 | 0.00 | 0.00 | 36 | 1013.7 |
| 20260830134718 | 91 | 322 | 8.0 | 14.0 | 0.00 | 0.00 | 0.00 | 36 | 1013.8 |
| 20260830134210 | 91 | 4 | 6.0 | 13.0 | 0.00 | 0.00 | 0.00 | 36 | 1013.9 |
| 20260830133707 | 91 | 26 | 7.0 | 13.0 | 0.00 | 0.00 | 0.00 | 37 | 1013.9 |
| 20260830132718 | 90 | 344 | 6.0 | 15.0 | 0.00 | 0.00 | 0.00 | 38 | 1014.2 |
| 20260830132214 | 90 | 348 | 5.0 | 15.0 | 0.00 | 0.00 | 0.00 | 38 | 1014.3 |
| 20260830131704 | 90 | 64 | 6.0 | 11.0 | 0.00 | 0.00 | 0.00 | 38 | 1014.4 |
| 20260830131208 | 90 | 355 | 4.0 | 12.0 | 0.00 | 0.00 | 0.00 | 39 | 1014.5 |
| 20260830130706 | 90 | 333 | 5.0 | 16.0 | 0.00 | 0.00 | 0.00 | 39 | 1014.5 |
| 20260830130205 | 89 | 60 | 6.0 | 16.0 | 0.00 | 0.00 | 0.00 | 40 | 1014.7 |
| 20260830125711 | 89 | 18 | 6.0 | 16.0 | 0.00 | 0.00 | 0.00 | 40 | 1014.8 |
| 20260830125219 | 89 | 345 | 7.0 | 11.0 | 0.00 | 0.00 | 0.00 | 40 | 1014.8 |
| 20260830124715 | 88 | 340 | 5.0 | 11.0 | 0.00 | 0.00 | 0.00 | 40 | 1014.9 |
| 20260830124218 | 88 | 30 | 4.0 | 13.0 | 0.00 | 0.00 | 0.00 | 40 | 1014.9 |
| 20260830123716 | 88 | 68 | 7.0 | 13.0 | 0.00 | 0.00 | 0.00 | 40 | 1014.9 |
| 20260830122706 | 88 | 7 | 7.0 | 10.0 | 0.00 | 0.00 | 0.00 | 41 | 1015.0 |
| 20260830122217 | 88 | 4 | 3.0 | 10.0 | 0.00 | 0.00 | 0.00 | 41 | 1015.1 |
| 20260830121705 | 87 | 19 | 3.0 | 10.0 | 0.00 | 0.00 | 0.00 | 41 | 1015.2 |
| 20260830121217 | 87 | 354 | 4.0 | 10.0 | 0.00 | 0.00 | 0.00 | 42 | 1015.3 |
| 20260830120705 | 87 | 354 | 3.0 | 10.0 | 0.00 | 0.00 | 0.00 | 42 | 1015.3 |
| 20260830120235 | 87 | 358 | 2.0 | 10.0 | 0.00 | 0.00 | 0.00 | 42 | 1015.4 |
| 20260830115746 | 86 | 0 | 4.0 | 10.0 | 0.00 | 0.00 | 0.00 | 43 | 1015.4 |
| 20260830115205 | 86 | 16 | 6.0 | 9.0 | 0.00 | 0.00 | 0.00 | 43 | 1015.5 |
| 20260830114219 | 86 | 337 | 2.0 | 9.0 | 0.00 | 0.00 | 0.00 | 43 | 1015.5 |
| 20260830113715 | 85 | 341 | 4.0 | 8.0 | 0.00 | 0.00 | 0.00 | 44 | 1015.6 |
| 20260830113206 | 85 | 354 | 1.0 | 9.0 | 0.00 | 0.00 | 0.00 | 44 | 1015.6 |
| 20260830112717 | 85 | 56 | 2.0 | 9.0 | 0.00 | 0.00 | 0.00 | 45 | 1015.7 |